AAL1278 KMYR-KDCA

Flight info

Callsign AAL1278
Flight time N/A
Altitude 33000
Route AARNN WAVES CAPSS4
Aircraft E45X/M-SABDFGRW/S

Departure

Time 2026-05-07 22:26
Airport Myrtle Beach International Airport (KMYR)

Arrival

Time N/A
Airport Ronald Reagan Washington National Airport (KDCA)
Time Latitude Longitude Altitude Speed Heading
2026-05-07 22:02 33.68065 -78.92462 22 ft 0 kts 150°
2026-05-07 22:15 33.68065 -78.92461 22 ft 0 kts 150°
2026-05-07 22:15 33.68066 -78.92462 22 ft 1 kts 150°
2026-05-07 22:15 33.68079 -78.92471 22 ft 2 kts 149°
2026-05-07 22:16 33.68092 -78.92481 22 ft 2 kts 150°
2026-05-07 22:16 33.68105 -78.92489 22 ft 2 kts 149°
2026-05-07 22:16 33.68116 -78.92496 22 ft 1 kts 180°
2026-05-07 22:16 33.68126 -78.92491 22 ft 1 kts 238°
2026-05-07 22:17 33.68128 -78.92482 22 ft 0 kts 258°
2026-05-07 22:20 33.68128 -78.92486 22 ft 1 kts 258°
2026-05-07 22:20 33.68123 -78.92509 22 ft 4 kts 256°
2026-05-07 22:20 33.68114 -78.92555 22 ft 6 kts 257°
2026-05-07 22:21 33.68103 -78.92619 22 ft 6 kts 258°
2026-05-07 22:21 33.68067 -78.92652 22 ft 8 kts 175°
2026-05-07 22:21 33.68006 -78.92638 22 ft 9 kts 167°
2026-05-07 22:21 33.67932 -78.92620 22 ft 11 kts 167°
2026-05-07 22:22 33.67844 -78.92598 22 ft 14 kts 168°
2026-05-07 22:22 33.67738 -78.92571 22 ft 16 kts 168°
2026-05-07 22:22 33.67613 -78.92542 22 ft 19 kts 168°
2026-05-07 22:22 33.67472 -78.92506 22 ft 22 kts 169°
2026-05-07 22:23 33.67313 -78.92467 22 ft 20 kts 167°
2026-05-07 22:23 33.67164 -78.92429 20 ft 21 kts 166°
2026-05-07 22:23 33.67039 -78.92357 19 ft 21 kts 161°
2026-05-07 22:23 33.66886 -78.92316 19 ft 23 kts 169°
2026-05-07 22:24 33.66768 -78.92290 19 ft 5 kts 188°
2026-05-07 22:24 33.66740 -78.92329 19 ft 7 kts 255°
2026-05-07 22:24 33.66727 -78.92404 19 ft 10 kts 257°
2026-05-07 22:24 33.66714 -78.92487 19 ft 7 kts 271°
2026-05-07 22:25 33.66760 -78.92530 19 ft 7 kts 349°
2026-05-07 22:25 33.66767 -78.92531 19 ft 0 kts 350°
2026-05-07 22:25 33.66965 -78.92580 21 ft 60 kts 347°
2026-05-07 22:25 33.67572 -78.92731 22 ft 114 kts 347°
2026-05-07 22:26 33.68485 -78.92961 62 ft 149 kts 344°
2026-05-07 22:26 33.69523 -78.93200 518 ft 159 kts 343°
2026-05-07 22:26 33.70683 -78.93469 1008 ft 177 kts 343°
2026-05-07 22:26 33.71876 -78.93713 1844 ft 174 kts 347°
2026-05-07 22:27 33.73114 -78.93919 2443 ft 197 kts 348°
2026-05-07 22:27 33.74554 -78.94165 3358 ft 213 kts 348°
2026-05-07 22:27 33.75965 -78.94388 4267 ft 216 kts 346°
2026-05-07 22:27 33.77576 -78.94669 4555 ft 244 kts 346°
2026-05-07 22:28 33.79268 -78.94939 5212 ft 253 kts 345°
2026-05-07 22:28 33.81108 -78.95219 5806 ft 269 kts 348°
2026-05-07 22:28 33.82932 -78.95203 6885 ft 268 kts
2026-05-07 22:28 33.84742 -78.94623 7745 ft 274 kts 11°
2026-05-07 22:29 33.86615 -78.93926 8241 ft 291 kts 10°
2026-05-07 22:29 33.88585 -78.93220 8866 ft 300 kts 10°
2026-05-07 22:29 33.90598 -78.92516 9678 ft 298 kts
2026-05-07 22:29 33.92591 -78.91782 10296 ft 303 kts 10°
2026-05-07 22:30 33.94631 -78.91060 10756 ft 312 kts
2026-05-07 22:30 33.96794 -78.90302 11164 ft 327 kts
2026-05-07 22:30 33.99025 -78.89510 11565 ft 345 kts
2026-05-07 22:30 34.01425 -78.88655 11708 ft 371 kts
2026-05-07 22:31 34.03915 -78.87765 12400 ft 376 kts
2026-05-07 22:31 34.06431 -78.86867 13175 ft 377 kts
2026-05-07 22:31 34.08967 -78.85962 13849 ft 382 kts
2026-05-07 22:31 34.11556 -78.85037 14502 ft 386 kts
2026-05-07 22:32 34.14168 -78.84103 15143 ft 390 kts
2026-05-07 22:32 34.16795 -78.83164 15776 ft 393 kts
2026-05-07 22:32 34.19444 -78.82217 16402 ft 396 kts
2026-05-07 22:32 34.22093 -78.81268 17006 ft 399 kts
2026-05-07 22:33 34.24760 -78.80312 17596 ft 403 kts
2026-05-07 22:33 34.27464 -78.79343 18167 ft 406 kts
2026-05-07 22:33 34.30198 -78.78361 18723 ft 409 kts
2026-05-07 22:33 34.32937 -78.77378 19266 ft 412 kts
2026-05-07 22:34 34.35690 -78.76389 19798 ft 416 kts
2026-05-07 22:34 34.38466 -78.75391 20296 ft 419 kts
2026-05-07 22:34 34.41267 -78.74383 20772 ft 423 kts
2026-05-07 22:34 34.44139 -78.73350 20994 ft 436 kts
2026-05-07 22:35 34.47102 -78.72282 21335 ft 443 kts
2026-05-07 22:35 34.49983 -78.71241 21783 ft 445 kts
2026-05-07 22:35 34.53091 -78.70119 22209 ft 449 kts
2026-05-07 22:35 34.56134 -78.69019 22597 ft 453 kts
2026-05-07 22:36 34.59204 -78.67910 22982 ft 457 kts
2026-05-07 22:36 34.62273 -78.66799 23389 ft 461 kts
2026-05-07 22:36 34.65369 -78.65678 23798 ft 464 kts
2026-05-07 22:36 34.68449 -78.64562 24189 ft 467 kts
2026-05-07 22:37 34.71589 -78.63424 24582 ft 470 kts
2026-05-07 22:37 34.74739 -78.62280 25003 ft 473 kts
2026-05-07 22:37 34.77890 -78.61135 25479 ft 474 kts
2026-05-07 22:37 34.81064 -78.59981 26017 ft 473 kts
2026-05-07 22:38 34.84218 -78.58833 26558 ft 472 kts
2026-05-07 22:38 34.87354 -78.57691 27097 ft 471 kts
2026-05-07 22:38 34.90484 -78.56551 27631 ft 470 kts
2026-05-07 22:38 34.93599 -78.55415 28167 ft 470 kts
2026-05-07 22:39 34.96736 -78.54270 28745 ft 469 kts
2026-05-07 22:39 34.99882 -78.53120 29357 ft 467 kts
2026-05-07 22:39 35.02991 -78.51984 29989 ft 465 kts
2026-05-07 22:39 35.06081 -78.50854 30620 ft 463 kts
2026-05-07 22:40 35.09175 -78.49721 31246 ft 461 kts
2026-05-07 22:40 35.12320 -78.48569 31836 ft 460 kts
2026-05-07 22:40 35.15445 -78.47424 32391 ft 460 kts
2026-05-07 22:40 35.18514 -78.46299 32821 ft 464 kts
2026-05-07 22:41 35.21657 -78.45145 32877 ft 470 kts
2026-05-07 22:41 35.27931 -78.42837 32870 ft 474 kts
2026-05-07 22:42 35.34329 -78.40480 32838 ft 478 kts
2026-05-07 22:42 35.40669 -78.38139 32789 ft 472 kts
2026-05-07 22:43 35.46980 -78.35806 32803 ft 466 kts
2026-05-07 22:43 35.53175 -78.33513 32798 ft 461 kts
2026-05-07 22:44 35.59327 -78.31233 32801 ft 459 kts
2026-05-07 22:44 35.65366 -78.28991 32803 ft 459 kts
2026-05-07 22:45 35.71568 -78.26685 32806 ft 461 kts
2026-05-07 22:45 35.77770 -78.24374 32810 ft 465 kts
2026-05-07 22:46 35.83962 -78.22064 32816 ft 468 kts
2026-05-07 22:46 35.90205 -78.19730 32822 ft 470 kts
2026-05-07 22:47 35.96503 -78.17373 32829 ft 473 kts
2026-05-07 22:47 36.02812 -78.15006 32834 ft 475 kts
2026-05-07 22:48 36.09153 -78.12624 32838 ft 477 kts
2026-05-07 22:48 36.15591 -78.10202 32834 ft 478 kts
2026-05-07 22:49 36.22001 -78.07786 32834 ft 479 kts
2026-05-07 22:49 36.28354 -78.05387 32833 ft 480 kts
2026-05-07 22:50 36.34810 -78.02946 32832 ft 481 kts
2026-05-07 22:50 36.41223 -78.00459 32836 ft 490 kts
2026-05-07 22:51 36.47588 -77.97292 32846 ft 490 kts
2026-05-07 22:51 36.53984 -77.94299 32850 ft 491 kts
2026-05-07 22:52 36.60385 -77.91313 32853 ft 492 kts
2026-05-07 22:52 36.66811 -77.88311 32857 ft 493 kts
2026-05-07 22:53 36.73268 -77.85289 32862 ft 494 kts
2026-05-07 22:53 36.79701 -77.82273 32858 ft 496 kts
2026-05-07 22:54 36.86185 -77.79228 32851 ft 498 kts
2026-05-07 22:54 36.92665 -77.76179 32848 ft 499 kts
2026-05-07 22:55 36.99149 -77.73122 32382 ft 496 kts
2026-05-07 22:55 37.02360 -77.71606 32139 ft 495 kts
2026-05-07 22:55 37.05593 -77.70077 32073 ft 489 kts
2026-05-07 22:55 37.08765 -77.68579 31844 ft 488 kts
2026-05-07 22:56 37.11991 -77.67055 31516 ft 490 kts
2026-05-07 22:56 37.15236 -77.65517 31139 ft 492 kts
2026-05-07 22:56 37.18465 -77.63985 30759 ft 494 kts
2026-05-07 22:56 37.21697 -77.62453 30383 ft 496 kts
2026-05-07 22:57 37.24958 -77.60902 29988 ft 496 kts
2026-05-07 22:57 37.28194 -77.59362 29450 ft 497 kts
2026-05-07 22:57 37.31435 -77.57819 28844 ft 500 kts
2026-05-07 22:57 37.34672 -77.56280 28270 ft 502 kts
2026-05-07 22:58 37.38023 -77.54680 27669 ft 503 kts
2026-05-07 22:58 37.41313 -77.53113 27056 ft 504 kts
2026-05-07 22:58 37.44602 -77.51541 26425 ft 505 kts
2026-05-07 22:58 37.47909 -77.49960 25775 ft 506 kts
2026-05-07 22:59 37.51212 -77.48379 25112 ft 508 kts
2026-05-07 22:59 37.54586 -77.46761 24460 ft 507 kts
2026-05-07 22:59 37.57925 -77.45164 23907 ft 503 kts
2026-05-07 22:59 37.61240 -77.43991 23390 ft 486 kts
2026-05-07 23:00 37.64554 -77.42982 22876 ft 483 kts
2026-05-07 23:00 37.67858 -77.41966 22373 ft 479 kts
2026-05-07 23:00 37.71116 -77.40961 21885 ft 473 kts
2026-05-07 23:00 37.74238 -77.39991 21806 ft 447 kts
2026-05-07 23:01 37.77210 -77.39073 21630 ft 429 kts
2026-05-07 23:01 37.80119 -77.38179 21071 ft 425 kts
2026-05-07 23:01 37.82988 -77.37294 20458 ft 423 kts
2026-05-07 23:01 37.85866 -77.36403 19894 ft 418 kts
2026-05-07 23:02 37.88679 -77.35531 19325 ft 414 kts
2026-05-07 23:02 37.91510 -77.34660 18717 ft 410 kts
2026-05-07 23:02 37.94280 -77.33808 18093 ft 406 kts
2026-05-07 23:02 37.97057 -77.32953 17495 ft 402 kts
2026-05-07 23:03 37.99763 -77.32120 16898 ft 397 kts
2026-05-07 23:03 38.02467 -77.31286 16300 ft 393 kts
2026-05-07 23:03 38.05127 -77.30466 15708 ft 388 kts
2026-05-07 23:03 38.07761 -77.29649 15116 ft 384 kts
2026-05-07 23:04 38.10381 -77.28828 14523 ft 380 kts
2026-05-07 23:04 38.12967 -77.28014 13922 ft 376 kts
2026-05-07 23:04 38.15543 -77.27206 13315 ft 372 kts
2026-05-07 23:04 38.18040 -77.26421 12727 ft 367 kts
2026-05-07 23:05 38.20572 -77.25604 12122 ft 365 kts
2026-05-07 23:05 38.22994 -77.24682 11544 ft 362 kts
2026-05-07 23:05 38.25428 -77.23761 10962 ft 357 kts
2026-05-07 23:05 38.27793 -77.22866 10390 ft 353 kts
2026-05-07 23:06 38.30169 -77.21967 9843 ft 348 kts
2026-05-07 23:06 38.32465 -77.21098 9481 ft 336 kts 10°
2026-05-07 23:06 38.34643 -77.20268 9457 ft 313 kts 10°
2026-05-07 23:06 38.36680 -77.19495 9416 ft 293 kts 10°
2026-05-07 23:07 38.38620 -77.18752 9156 ft 285 kts 11°
2026-05-07 23:07 38.40519 -77.18021 8748 ft 284 kts 11°
2026-05-07 23:07 38.42418 -77.17287 8374 ft 281 kts 11°
2026-05-07 23:07 38.44313 -77.16557 8012 ft 277 kts 11°
2026-05-07 23:08 38.46153 -77.15846 7650 ft 274 kts 12°
2026-05-07 23:08 38.47986 -77.15138 7283 ft 271 kts 12°
2026-05-07 23:08 38.49785 -77.14443 6927 ft 267 kts 12°
2026-05-07 23:08 38.51577 -77.13750 6572 ft 264 kts 13°
2026-05-07 23:09 38.53336 -77.13071 6216 ft 262 kts 13°
2026-05-07 23:09 38.55082 -77.12393 5874 ft 258 kts 13°
2026-05-07 23:09 38.56780 -77.11735 5798 ft 245 kts 13°
2026-05-07 23:09 38.58396 -77.11110 5789 ft 230 kts 13°
2026-05-07 23:10 38.59910 -77.10519 5784 ft 226 kts 13°
2026-05-07 23:10 38.61467 -77.09925 5798 ft 236 kts 14°
2026-05-07 23:10 38.63114 -77.09292 5793 ft 246 kts 14°
2026-05-07 23:10 38.64802 -77.08643 5793 ft 255 kts 14°